"Pseudo-MPEC" for P110JH7

Created 2020 May 26 12:07:16 UT using Find_Orb

Click here for an explanation of pseudo-MPECs

 
 Astrometry: 
     P110JH7  C2020 05 21_^ICE'BCHa_*:#.SpVjKIo]Astrometry[O,7U$vMcyp.m5I;PbyF51
     P110JH7  C2020 05 21Df-x6dBag7xH@^9uc5IL4s4o@#r5S[5R!BP7`LRMcQredacted;PF51
     P110JH7  C2020 05 21)5i%xY($GUmvclickp5e$pVqw`b]2:euE;X[^73=?leO_'%/pj3@F51
     P110JH7  C2020 05 21kC7hhere)SKonjD9+#ND:a4.cGbhVX2jy#gjEKDq@la?_Gvhkj*,F51
     P110JH7  C2020 05 21$l3A9uco-v9,S'QyROJLAeEZ2AforHWexplanation2,djxQf7LOF51
     P110JH7  C2020 05 21-3%F@Y'K23\:AG_!4[$Em0c7/:#F@--T2TNE5yW#y9=t;OO]St*dF51
     P110JH7  C2020 05 21^BMREss,'M?5Ud$Tv'S5D'*!VY80.wNF?!xNq%/xDxSb#a^^nN]uF51
     P110JH7  C2020 05 21X^RlPMjFEx?sJD]B[0*8qCQ@K4;]Lm)c)*S]*x\IL`GcbixrNkDKF51

Station data:
(F51) Pan-STARRS 1, Haleakala  (N20.707235 W156.255910)  US/Hawaii.
   Observers N. Primak, A. Schultz, S. Watters, J. Thiel, T. Goggia. Measurer
   PS1 Science Consortium. 1.8-m Ritchey-Chrétien + CCD.

Orbital elements:  P110JH7
   Perihelion 2020 May 11.553673 +/- 43.9 TT = 13:17:17 (JD 2458981.053673)
Epoch 2020 May 21.0 TT = JDT 2458990.5   Earth MOID: 0.3029   Ju: 0.3399
M   1.80491955 +/- 19               (J2000 ecliptic)          AutoNEOCP
n   0.19107104 +/- 0.224            Peri.  180.39558 +/- 60
a   2.98542475 +/- 2.35             Node    50.84451 +/- 45
e   0.5601565 +/- 0.252             Incl.   18.26818 +/- 7
P   5.16                   H 22.4   G  0.15   U 11.7  SR
q 1.31311960 +/- 0.243    Q 4.65772991 +/- 46.2
From 8 observations 2020 May 21 (48.2 min); mean residual 0".05
Residuals in arcseconds: 
200521 F51  .03+  .05+    200521 F51  .02+  .03-    200521 F51  .04+  .05-    
200521 F51  .01+  .02+    200521 F51  .04+  .03-    200521 F51  .02+  .05+    
200521 F51  .06-  .07-    200521 F51  .10-  .07+    

Ephemerides (geocentric):
Date (UTC) HH   RA              Dec         delta   r     elong  mag " sig PA
---- -- -- --  -------------   -----------  ------ ------ -----  --- ---- ---
2020 05 26 12  15 08 21.573   -34 23 30.88  .32488 1.3238 160.4 21.4  33d 172
2020 05 26 13  15 08 20.462   -34 25 48.49  .32501 1.3238 160.4 21.4  33d 172
2020 05 26 14  15 08 19.355   -34 28 05.95  .32513 1.3239 160.3 21.4  33d   3
2020 05 26 15  15 08 18.252   -34 30 23.26  .32526 1.3240 160.3 21.4  33d   3
2020 05 26 16  15 08 17.152   -34 32 40.43  .32539 1.3240 160.2 21.4  34d   4
2020 05 26 17  15 08 16.056   -34 34 57.46  .32552 1.3241 160.2 21.4  35d   4
2020 05 26 18  15 08 14.964   -34 37 14.33  .32565 1.3241 160.1 21.4  35d   4
2020 05 26 19  15 08 13.876   -34 39 31.07  .32578 1.3242 160.1 21.4  36d   4
2020 05 26 20  15 08 12.791   -34 41 47.65  .32591 1.3243 160.0 21.4  36d   3
2020 05 26 21  15 08 11.710   -34 44 04.09  .32604 1.3243 160.0 21.4  36d   3
2020 05 26 22  15 08 10.633   -34 46 20.39  .32617 1.3244 160.0 21.5  36d   3
2020 05 26 23  15 08 09.560   -34 48 36.54  .32630 1.3244 159.9 21.5  36d   2
2020 05 27 00  15 08 08.491   -34 50 52.54  .32643 1.3245 159.9 21.5  36d   2
2020 05 27 01  15 08 07.425   -34 53 08.40  .32656 1.3246 159.8 21.5  36d   1
2020 05 27 02  15 08 06.364   -34 55 24.11  .32670 1.3246 159.8 21.5  36d   1
2020 05 27 03  15 08 05.306   -34 57 39.67  .32683 1.3247 159.7 21.5  36d   0
2020 05 27 04  15 08 04.253   -34 59 55.08  .32696 1.3248 159.7 21.5  36d   0
2020 05 27 05  15 08 03.203   -35 02 10.35  .32709 1.3248 159.6 21.5  36d   0
2020 05 27 06  15 08 02.157   -35 04 25.47  .32723 1.3249 159.6 21.5  36d 179
2020 05 27 07  15 08 01.115   -35 06 40.44  .32736 1.3249 159.5 21.5  36d 179
2020 05 27 08  15 08 00.077   -35 08 55.27  .32749 1.3250 159.5 21.5  36d 179
2020 05 27 09  15 07 59.043   -35 11 09.94  .32763 1.3251 159.4 21.5  36d 178
2020 05 27 10  15 07 58.013   -35 13 24.47  .32776 1.3251 159.4 21.5  36d 178
2020 05 27 11  15 07 56.987   -35 15 38.86  .32790 1.3252 159.3 21.5  36d 178
2020 05 27 12  15 07 55.965   -35 17 53.09  .32803 1.3253 159.3 21.5  36d 178
2020 05 27 13  15 07 54.947   -35 20 07.17  .32817 1.3253 159.2 21.5  36d 177
2020 05 27 14  15 07 53.933   -35 22 21.11  .32830 1.3254 159.2 21.5  36d 177
2020 05 27 15  15 07 52.923   -35 24 34.90  .32844 1.3254 159.1 21.5  36d 177
2020 05 27 16  15 07 51.918   -35 26 48.53  .32858 1.3255 159.1 21.5  36d 177
2020 05 27 17  15 07 50.916   -35 29 02.02  .32871 1.3256 159.0 21.5  36d 177
2020 05 27 18  15 07 49.918   -35 31 15.36  .32885 1.3256 159.0 21.5  36d 176
2020 05 27 19  15 07 48.925   -35 33 28.56  .32899 1.3257 158.9 21.5  36d 176
2020 05 27 20  15 07 47.935   -35 35 41.60  .32913 1.3258 158.9 21.5  36d 176
2020 05 27 21  15 07 46.950   -35 37 54.49  .32926 1.3258 158.8 21.5  36d 176
2020 05 27 22  15 07 45.969   -35 40 07.23  .32940 1.3259 158.8 21.5  36d 176
2020 05 27 23  15 07 44.992   -35 42 19.83  .32954 1.3260 158.8 21.5  36d 176
2020 05 28 00  15 07 44.019   -35 44 32.27  .32968 1.3260 158.7 21.5  36d 176
2020 05 28 01  15 07 43.050   -35 46 44.56  .32982 1.3261 158.7 21.5  36d 175
2020 05 28 02  15 07 42.085   -35 48 56.71  .32996 1.3261 158.6 21.5  36d 175
2020 05 28 03  15 07 41.125   -35 51 08.70  .33010 1.3262 158.6 21.5  36d 175
2020 05 28 04  15 07 40.169   -35 53 20.54  .33024 1.3263 158.5 21.5  36d 175
2020 05 28 05  15 07 39.217   -35 55 32.23  .33038 1.3263 158.5 21.5  36d 175
2020 05 28 06  15 07 38.270   -35 57 43.78  .33052 1.3264 158.4 21.5  36d 175
2020 05 28 07  15 07 37.326   -35 59 55.17  .33066 1.3265 158.4 21.5  36d 175
2020 05 28 08  15 07 36.387   -36 02 06.41  .33080 1.3265 158.3 21.5  36d 175
2020 05 28 09  15 07 35.452   -36 04 17.50  .33095 1.3266 158.3 21.5  36d 175
2020 05 28 10  15 07 34.522   -36 06 28.44  .33109 1.3267 158.2 21.5  36d 175
2020 05 28 11  15 07 33.595   -36 08 39.22  .33123 1.3267 158.2 21.5  38d 178